SL-19 DEB, 23488

Orbit data source: Space-Track

SL-19 DEB, 23488 is space debris in LEO originally from a launch on Mon, 26 Dec 1994 UTC launched from the Tyuratam Missile And Space Complex (TTMTR). Debris objects in space refer to the collection of defunct objects orbiting the Earth. Examples of debris include non-operational satellites, rocket bodies, and fragments generated from explosions, collisions, or faulty payload assembly.

Loading next visibility...
Identifier
23488, 1994-085L
Orbit
LEO
Country
Flag of CISCIS
Related business
Manufacturer
Unknown
Mission
Spacecraft
Bus & Motor
Unknown
Mass
Unknown
Launch date (UTC)
1994-12-26 (31 years ago)
Launch vehicle
Unknown
Launch site
Tyuratam Missile And Space Complex (TTMTR)
Object type
Payload
Rocket body
Debris
Shape & HBR
Unknown shape, 0.4 m
Radar Cross Section
Medium (>0.1 m² and <1 m²)

Expand to show TLE details & history
Last TLE update: 2 days ago

TLE from 2 days ago
0 SL-19 DEB
1 23488U 94085L   26171.44895711  .00003800  00000-0  10343+0 0  9998
2 23488  64.9998  72.9266 0219005 110.0971  60.6008 11.29853706295299
Epoch: 2026-06-20T10:46Z
TLE epoch observation values (Epoch: 2026-06-20T10:46:29.894Z)
Latitude
6.36876°
Longitude
179.66911°
Altitude
1,925.054 km
Speed
6.966 km/s
True Right ascension
16h 39m 49s
True Declination
6° 20' 11"
Sunlit
Object was in full shadow at epoch
Visualization orbit readout
Latitude
Unknown
Longitude
Unknown
Altitude
Unknown
Speed
Unknown
Apparent Right ascension
Unknown
Apparent Declination
Unknown
Sunlit
N/A
Visualization observer readout
Local Sidereal Time
01:06:00
Azimuth
Unknown
Elevation
Unknown
Doppler factor
Unknown
Orbital elements
Apogee altitude
2,193.546 km
Perigee altitude
1,826.144 km
Semi-major axis
8,387.982 km
Eccentricity
0.0219
Inclination
64.9998°
RAAN
72.9266°
Arg. of periapsis
110.0971°
True anomaly
62.81644°
Mean anomaly
60.6008°
Eccentric anomaly
61.70569°
Mean motion
2.82525 °/min
Orbital period
127.42 mins
BSTAR
0.10343
Loading maneuver chart data...
Computing Atmospheric mass density...
Loading historical data...
Loading historical data...
Loading historical data...
Loading historical data...
Loading historical data...
Loading historical data...
Loading historical data...

Documentation

Showing up to 5 results
|